Location: ????????
(37.9452°N, 23.1472°E)
Time: 18:44:07
(UTC+00:00)

Terra - Pass Details

Date: 18 April 2024
Orbit: 691 x 696 km, 98.0° (Epoch: 27 May)

Event Time Altitude Azimuth Distance (km) Brightness Sun altitude
Exits shadow 20:41:02 23° 297° (WNW) 1,455 3.9 -35.0°
Drops below altitude 10° 20:43:30 10° 324° (NW) 2,161 5.1 -35.2°
Sets 20:46:02 0° 335° (NNW) 3,082 6.1 -35.5°
